Change the Weather History Date:

Thursday, May 16, 2013

  Actual Average Record
Temperature  
Mean Temperature 61 °F -  
Max Temperature 66 °F 63 °F 81 °F (2014)
Min Temperature 56 °F 50 °F 43 °F (2011)
Degree Days  
Heating Degree Days 4    
Growing Degree Days 11 (Base 50)    
Moisture  
Dew Point 55 °F    
Average Humidity 77    
Maximum Humidity 82    
Minimum Humidity 72    
Precipitation  
Precipitation 0.00 in - - ()
Sea Level Pressure  
Sea Level Pressure 29.95 in    
Wind  
Wind Speed 3 mph (West)    
Max Wind Speed 12 mph    
Max Gust Speed -    
Visibility 5 miles    
Events      
Averages and records for this station are not official NWS values.
T = Trace of Precipitation, MM = Missing Value Source: NWS Daily Summary

Daily Weather History Graph

Daily Weather History Graph

Search for Another Location

Airport or City:

Trip Planner

Search our weather history database for the weather conditions in past years. The results will help you decide how hot, cold, wet, or windy it might be!

Date:

Astronomy

May. 16, 2013 Rise Set
Actual Time 5:53 AM PDT 7:52 PM PDT
Civil Twilight 5:26 AM PDT 8:20 PM PDT
Nautical Twilight 4:52 AM PDT 8:53 PM PDT
Astronomical Twilight 4:16 AM PDT 9:30 PM PDT
Moon 11:26 AM PDT (5/16) 12:20 AM PDT (5/16)
Length of Visible Light 14h 54m
Length of Day
13h 58m
Waxing Crescent, 36% of the Moon is Illuminated
May 16
Waxing Crescent
May 17
First Quarter
May 24
Full
May 31
Last Quarter
Jun 8
New

Hourly Weather History & Observations

Time (PDT) Temp. Dew Point Humidity Pressure Visibility Wind Dir Wind Speed Gust Speed Precip Events Conditions
12:54 AM - - N/A% - - Calm Calm - N/A   Haze
1:54 AM - - N/A% - - WNW 5.8 mph - N/A   Haze
2:54 AM - - N/A% - - Calm Calm - N/A   Haze
3:54 AM - - N/A% - - Calm Calm - N/A   Haze
4:26 AM - - N/A% - - Calm Calm - N/A   Haze
4:54 AM - - N/A% - - Calm Calm - N/A   Haze
5:54 AM 56.7 °F 50.9 °F 81% 29.96 in 4.0 mi NE 3.5 mph - N/A   Haze
6:54 AM 56.7 °F 51.3 °F 82% 29.97 in 3.0 mi NE 4.6 mph - N/A   Overcast
7:54 AM 58.6 °F 53.1 °F 82% 29.97 in 4.0 mi NE 4.6 mph - N/A   Haze
8:54 AM 61.5 °F 54.5 °F 78% 29.99 in 4.0 mi Calm Calm - N/A   Haze
9:54 AM 61.5 °F 54.9 °F 79% 29.99 in 4.0 mi SSW 4.6 mph - N/A   Haze
10:54 AM 61.5 °F 54.9 °F 79% 29.99 in 4.0 mi SW 6.9 mph - N/A   Haze
11:04 AM 64.4 °F 55.4 °F 73% 29.99 in 5.0 mi WSW 6.9 mph - N/A   Haze
11:54 AM 64.4 °F 55.8 °F 73% 29.99 in 6.0 mi West 10.4 mph - N/A   Haze
12:54 PM 65.5 °F 56.3 °F 72% 29.99 in 6.0 mi WSW 10.4 mph - N/A   Haze
1:54 PM 65.1 °F 57.0 °F 75% 29.96 in 6.0 mi West 11.5 mph - N/A   Haze
2:54 PM 65.1 °F 56.7 °F 74% 29.95 in 6.0 mi WSW 11.5 mph - N/A   Haze
3:54 PM 66.0 °F 57.6 °F 74% 29.94 in 6.0 mi WSW 11.5 mph - N/A   Haze
4:54 PM 64.2 °F 55.2 °F 73% 29.94 in 6.0 mi West 10.4 mph - N/A   Haze
5:54 PM 63.0 °F 54.1 °F 73% 29.91 in 6.0 mi West 6.9 mph - N/A   Haze
6:54 PM 63.0 °F 54.1 °F 73% 29.91 in 6.0 mi Calm Calm - N/A   Haze
7:54 PM 62.2 °F 54.0 °F 74% 29.91 in 6.0 mi WSW 4.6 mph - N/A   Haze
8:54 PM 61.0 °F 53.6 °F 77% 29.91 in 6.0 mi Calm Calm - N/A   Haze
9:54 PM 60.8 °F 55.0 °F 81% 29.92 in 6.0 mi Calm Calm - N/A   Haze
10:54 PM 61.0 °F 55.4 °F 82% 29.94 in 6.0 mi West 4.6 mph - N/A   Haze
11:54 PM 60.8 °F 55.4 °F 82% 29.94 in 6.0 mi Calm Calm - N/A   Haze